Regional Weather Roundup
Issued by NWS Jackson, KY

Home | Current Version | Previous Version | Text Only | Print | Product List | Glossary On
Versions: 1 2 3 4 5 6 7 8 9 10 11 12 13 14 15 16 17 18 19 20 21 22 23 24 25 26 27 28 29 30 31 32 33 34 35 36 37 38 39 40 41 42 43 44 45 46 47 48 49 50
865
ASUS43 KJKL 291910
RWRJKL

EAST KENTUCKY HOURLY WEATHER ROUNDUP
NATIONAL WEATHER SERVICE JACKSON KY
300 PM EDT FRI JUL 29 2016

NOTE: "FAIR" INDICATES FEW OR NO CLOUDS BELOW 12,000 FEET WITH
NO SIGNIFICANT WEATHER AND/OR OBSTRUCTIONS TO VISIBILITY.

* THESE REPORTS ARE NOT UNDER NWS QUALITY CONTROL AND MAY NOT
  REPORT WEATHER SUCH AS PRECIPITATION AND FOG.

KYZ079-080-083-085-087-088-110-112-115-119-120-292000
...EASTERN KENTUCKY...

CITY           SKY/WX    TMP DP  RH WIND       PRES   REMARKS
JACKSON        PTSUNNY   81  72  74 VRB3      29.98F
LONDON         TSTM      73  68  84 SW9       30.01R VSB 1
SOMERSET*      LGT RAIN  70  70 100 SW6       30.01S
MONTICELLO*    LGT RAIN N/A N/A N/A W5        30.02F
WILLIAMSBURG*  CLOUDY    73  73 100 NW10      30.02R
MIDDLESBORO*   PTSUNNY   86  71  61 S5        29.97F HX  92
HARLAN APT*      N/A     84  64  51 CALM      29.99F
PIKE CO APT*     N/A     81  72  72 CALM      29.98F
BIG SANDY APT* MOCLDY    82  72  71 W3        29.98S
MOREHEAD APT*  MOCLDY    82  72  69 CALM      29.96F
ASHLAND*       PTSUNNY   84  73  70 CALM      29.92F HX  91
$$

KYZ035-036-041-042-044-050-067-078-099-292000
...CENTRAL KENTUCKY...

CITY           SKY/WX    TMP DP  RH WIND       PRES   REMARKS
MT STERLING*   PTSUNNY   82  72  69 SW5       29.97S
FLEMING/MASON* MOSUNNY   82  72  71 SW6       29.94F
DANVILLE*      CLOUDY    81  72  74 W8        29.98S
LEXINGTON      LGT RAIN  80  73  79 SW6       29.95S
FRANKFORT      PTSUNNY   83  70  64 CALM      29.92F
LOUISVILLE     CLOUDY    87  71  58 SW13      29.91F HX  93
LEBANON*         N/A     82  73  74 S9        29.95F
GLASGOW*       PTSUNNY   77  73  89 S5        29.97F
BOWLING GREEN  MOSUNNY   81  74  79 SE9       29.95F
$$

KYZ091>093-OHZ055-061-077-WVZ005-015-034-035-042-292000
...SOUTHERN OHIO/WEST VIRGINIA...

CITY           SKY/WX    TMP DP  RH WIND       PRES   REMARKS
COVINGTON      PTSUNNY   86  70  58 SW6       29.92F HX  90
COLUMBUS       CLOUDY    80  70  71 SW8       29.94R
DAYTON         PTSUNNY   85  66  53 W7        29.92F
WILMINGTON     MOSUNNY   82  72  71 S10       29.92F
HUNTINGTON       N/A     82  71  69 S5        29.95F
CHARLESTON     PTSUNNY   81  68  64 CALM      29.96F
PINEVILLE*       N/A     82  66  56 MISG      30.05F
BECKLEY          N/A     80  65  59 N7        30.04F
BLUEFIELD      PTSUNNY   76  64  66 NW7       30.07F
LOGAN CO APT*  MOCLDY    82  70  65 CALM      29.98F
$$

VAZ002-007-008-TNZ017-027-036-066-071-292000
...SOUTHWEST VIRGINIA/EAST TENNESSEE...

CITY           SKY/WX    TMP DP  RH WIND       PRES   REMARKS
WISE*          PTSUNNY   79  61  53 W9        30.07F
JONESVILLE*      N/A     84  68  58 CALM      30.01F
ABINGDON*      CLOUDY    81  68  63 W9        30.04F
BRISTOL        PTSUNNY   87  68  52 NW6       30.00F HX  90
MORRISTOWN*    PTCLDY    86  70  58 SW9G15    29.97F HX  90
SEVIERVILLE*   MOCLDY    90  66  45 S6        29.97F HX  92
KNOXVILLE      PTSUNNY   87  67  51 S7        29.97F HX  90
OAK RIDGE      PTSUNNY   88  68  51 S8        29.98F HX  91
CROSSVILLE     MOSUNNY   82  70  66 W13G20    30.04F
NASHVILLE      MOSUNNY   87  72  60 W13G18    29.96F HX  93
$$

...KEY TO REMARKS...
VSB - VISIBILITY IN MILES
WCI - WIND CHILL INDEX
HX  - HEAT INDEX

$$




USA.gov is the U.S. government's official web portal to all federal, state and local government web resources and services.